Location: Arbon
(43.0005°N, 0.7472°E)
Time: 09:07:26
(UTC+00:00)

Vanguard 2 Rocket - Pass Details

Date: 27 November 2020
Orbit: 554 x 3325 km, 32.9° (Epoch: 21 January)

Event Time Altitude Azimuth Distance (km) Brightness Sun altitude
Rises 06:01:40 0° 206° (SSW) 6,870 11.3 -11.3°
Reaches altitude 10° 06:07:01 10° 196° (SSW) 6,085 11.1 -10.4°
Maximum altitude 06:22:39 30° 144° (SE) 4,741 11.2 -7.7°
Drops below altitude 10° 06:37:05 10° 93° (E) 5,668 12.3 -5.3°
Sets 06:41:43 0° 83° (E) 6,360 12.3 -4.5°
